This demonstration page uses our WeatherBlox Daily Observations layout. Learn more.

Left ArrowRight Arrow

53.62937, 11.41316

Hourly Observations for March 22, 2021

Temp ( °F °C ) Dew Point ( °F °C ) Humidity (%) Winds ( mph kmh ) Pressure ( in mb ) Visibility ( mi km ) Precip ( " mm )
7:50 am 07:50 Mostly Sunny 32 0 32 0 100 100 VRB 2 4 30.12 1020 5 8 N/A
8:20 am 08:20 Mostly Sunny 36 2 34 1 93 93 WSW 5 7 30.12 1020 7 11 N/A
8:50 am 08:50 Mostly Cloudy 36 2 34 1 93 93 WSW 8 13 30.12 1020 4 7 N/A
9:20 am 09:20 Mostly Cloudy 36 2 34 1 93 93 WSW 5 7 30.15 1021 4 7 N/A
9:50 am 09:50 Mostly Cloudy 36 2 34 1 93 93 WSW 5 7 30.15 1021 30 48 N/A
10:20 am 10:20 Mostly Cloudy 37 3 34 1 87 87 W 6 9 30.15 1021 30 48 N/A
10:50 am 10:50 Mostly Cloudy 39 4 34 1 81 81 WSW 6 9 30.15 1021 30 48 N/A
11:20 am 11:20 Mostly Sunny 41 5 34 1 76 76 WSW 6 9 30.15 1021 30 48 N/A
11:50 am 11:50 Mostly Sunny 45 7 34 1 66 66 W 7 11 30.15 1021 7 11 N/A
12:20 pm 12:20 Mostly Sunny 46 8 32 0 57 57 WSW 5 7 30.15 1021 7 11 N/A
12:50 pm 12:50 Mostly Sunny 46 8 30 -1 53 53 WSW 6 9 30.15 1021 7 11 N/A
1:20 pm 13:20 Mostly Sunny 48 9 30 -1 50 50 SW 8 13 30.15 1021 7 11 N/A
1:50 pm 13:50 Mostly Sunny 50 10 32 0 50 50 W 6 9 30.15 1021 30 48 N/A
2:20 pm 14:20 Partly Cloudy 48 9 32 0 54 54 WSW 8 13 30.12 1020 30 48 N/A
2:50 pm 14:50 Partly Cloudy 50 10 34 1 54 54 W 6 9 30.12 1020 30 48 N/A
3:20 pm 15:20 Partly Cloudy 48 9 34 1 58 58 W 7 11 30.12 1020 30 48 N/A
3:50 pm 15:50 Partly Cloudy 48 9 34 1 58 58 W 7 11 30.12 1020 30 48 N/A
4:20 pm 16:20 Partly Cloudy 48 9 36 2 62 62 W 8 13 30.12 1020 30 48 N/A
4:50 pm 16:50 Mostly Cloudy 48 9 36 2 62 62 W 8 13 30.12 1020 30 48 N/A
5:20 pm 17:20 Mostly Cloudy 46 8 36 2 66 66 W 8 13 30.12 1020 30 48 N/A
5:50 pm 17:50 Mostly Cloudy 46 8 36 2 66 66 W 8 13 30.15 1021 30 48 N/A
6:20 pm 18:20 Mostly Cloudy 43 6 39 4 87 87 WSW 8 13 30.15 1021 30 48 N/A
6:50 pm 18:50 Mostly Cloudy 43 6 39 4 87 87 WSW 8 13 30.15 1021 6 9 N/A
7:20 pm 19:20 Mostly Cloudy 43 6 39 4 87 87 WSW 7 11 30.15 1021 30 48 N/A
7:50 pm 19:50 Mostly Cloudy 43 6 39 4 87 87 WSW 6 9 30.18 1022 30 48 N/A

Powered by AerisWeather